EW9828 Weather Reports


Display with metric or nautical units.
time (UTC)temp
F
wind
direction
speed
MPH
gust
MPH
rain 1hr
in
rain 24hr
in
rain mn
in
humidity
%
barometer
mb
20260505003005 68 11 0.0 0.0 0.00 0.00 0.00 53 1012.2
20260505001504 70 11 0.0 0.0 0.00 0.00 0.00 52 1012.1
20260505000007 71 11 0.0 0.0 0.00 0.00 0.00 50 1012.0
20260504234504 72 11 0.0 0.0 0.00 0.00 0.00 49 1011.9
20260504233005 73 11 0.0 0.0 0.00 0.00 0.00 48 1011.8
20260504231502 75 11 0.0 0.0 0.00 0.00 0.00 47 1011.7
20260504230106 76 11 0.0 0.0 0.00 0.00 0.00 42 1011.7
20260504230001 76 11 0.0 0.0 0.00 0.00 0.00 42 1011.7
20260504224600 76 11 0.0 0.0 0.00 0.00 0.00 42 1011.9
20260504223103 75 11 0.0 0.0 0.00 0.00 0.00 43 1011.9
20260504221604 76 11 0.0 0.0 0.00 0.00 0.00 40 1012.0
20260504220058 77 11 0.0 0.0 0.00 0.00 0.00 39 1012.0
20260504214614 78 11 0.0 0.0 0.00 0.00 0.00 38 1012.1
20260504213116 79 11 0.0 0.0 0.00 0.00 0.00 38 1012.0
20260504211557 78 12 0.0 0.0 0.00 0.00 0.00 38 1011.9
20260504210059 78 12 0.0 0.0 0.00 0.00 0.00 42 1011.8
20260504204555 78 12 0.0 0.0 0.00 0.00 0.00 39 1011.9
20260504203103 78 12 0.0 0.0 0.00 0.00 0.00 39 1012.1
20260504201606 78 11 0.0 0.0 0.00 0.00 0.00 35 1012.2
20260504200050 78 11 0.0 0.0 0.00 0.00 0.00 37 1012.3
20260504194551 79 11 0.0 0.0 0.00 0.00 0.00 35 1012.6
20260504193045 79 11 0.0 0.0 0.00 0.00 0.00 34 1012.9
20260504191554 79 11 0.0 0.0 0.00 0.00 0.00 33 1013.1
20260504190043 79 11 0.0 0.0 0.00 0.00 0.00 36 1013.4
20260504184549 78 12 0.0 0.0 0.00 0.00 0.00 35 1013.4
20260504183036 77 12 0.0 0.0 0.00 0.00 0.00 34 1013.5
20260504181537 77 12 0.0 0.0 0.00 0.00 0.00 32 1013.6
20260504180031 77 12 0.0 0.0 0.00 0.00 0.00 32 1013.8
20260504174530 77 12 0.0 0.0 0.00 0.00 0.00 34 1013.6
20260504173026 76 12 0.0 0.0 0.00 0.00 0.00 35 1014.0
20260504171522 76 12 0.0 0.0 0.00 0.00 0.00 36 1014.4
20260504081545 42 12 0.0 0.0 0.00 0.00 0.00 83 1016.3
20260504044533 44 12 0.0 0.0 0.00 0.00 0.00 80 1016.3
20260504043032 44 12 0.0 0.0 0.00 0.00 0.00 81 1016.4
20260504041530 44 12 0.0 0.0 0.00 0.00 0.00 80 1016.3
20260504040028 45 12 0.0 0.0 0.00 0.00 0.00 79 1016.3
20260504034533 45 12 0.0 0.0 0.00 0.00 0.00 78 1016.5
20260504033044 45 12 0.0 0.0 0.00 0.00 0.00 76 1016.5
20260504031531 46 12 0.0 0.0 0.00 0.00 0.00 76 1016.4
20260504030026 46 12 0.0 0.0 0.00 0.00 0.00 74 1016.5
20260504024540 46 12 0.0 0.0 0.00 0.00 0.00 74 1016.3
20260504023026 47 12 0.0 0.0 0.00 0.00 0.00 73 1016.4
20260504021527 47 12 0.0 0.0 0.00 0.00 0.00 73 1016.2
20260504020024 48 12 0.0 0.0 0.00 0.00 0.00 70 1016.1
20260504014524 49 12 0.0 0.0 0.00 0.00 0.00 68 1016.1
20260504013024 50 12 0.0 0.0 0.00 0.00 0.00 64 1015.8
20260504011523 51 12 0.0 0.0 0.00 0.00 0.00 65 1015.8
20260504010023 52 12 0.0 0.0 0.00 0.00 0.00 63 1015.7
20260504004537 53 12 0.0 0.0 0.00 0.00 0.00 58 1015.6